Home > Time Zones > World Clock > Weather > Iran > Tehran > Past weeks

Flag for Iran Weather past 2 weeks in Tehran, Iran

Now
75 °F

Clear.


Feels Like: 77 °F
Forecast: 73 / 87 °F
Wind: 5 mph from Northwest

Location: Tehran-Mehrabad

Current Time: Aug 31, 2015 at 6:16:20 AM

Latest Report: Aug 31, 2015 at 5:30 AM


Visibility: 10 mi

Pressure: 30.04 "Hg (26.23 "Hg at 1179m altitude)

Humidity: 27%

Dew point: 39 °F

Location of TehranLocation

Historic Weather in Tehran — Graph

°F

Tehran temperature yesterday

Maximum temperature yesterday: 90 °F (at 5:00 PM)
Minimum temperature yesterday: 73 °F (at 4:30 AM)
Average temperature yesterday: 81 °F

Past Weeks' High & Low Weather Summary

 TemperatureHumidityPressure
High102 °F (Aug 17, 3:30 PM)60% (Aug 27, 6:30 AM)30.12 "Hg (Aug 27, 6:30 AM)
Low68 °F (Aug 27, 6:30 AM)6% (Aug 17, 11:00 AM)29.71 "Hg (Aug 24, 5:30 PM)
Average86 °F24%29.94 "Hg
* Reported Aug 16 5:00 AM — Aug 31 5:00 AM, Tehran, Weather by CustomWeather, © 2015

Note: Actual official high and low records may vary slightly from our data, if they occured in-between our weather recording intervals... More about our weather records

Advertising

Tehran weather history for previous 24 hours

 ConditionsComfort  
Time TempWeatherWind HumidityBarometerVisibility
5:00 AM
Mon, Aug 31
77 °FClear.5 mph26%30.04 "Hg10 mi
4:30 AM77 °FClear.5 mph26%30.04 "Hg10 mi
3:30 AM77 °FClear.7 mph28%30.04 "Hg10 mi
3:00 AM77 °FClear.1 mph30%30.04 "Hg10 mi
2:30 AM77 °FClear.No wind30%30.04 "Hg10 mi
2:00 AM77 °FClear.5 mph30%30.04 "Hg10 mi
1:30 AM82 °FClear.5 mph20%30.04 "Hg10 mi
1:00 AM82 °FClear.12 mph20%30.04 "Hg10 mi
12:30 AM82 °FClear.5 mph23%30.04 "Hg10 mi
12:00 AM82 °FClear.5 mph26%30.04 "Hg10 mi
11:30 PM
Sun, Aug 30
82 °FClear.5 mph26%30.04 "Hg10 mi
11:00 PM82 °FClear.5 mph25%30.04 "Hg10 mi
10:30 PM82 °FClear.5 mph25%30.04 "Hg10 mi
10:00 PM84 °FClear.5 mph22%30.04 "Hg10 mi
9:30 PM86 °FClear.7 mph19%30.01 "Hg10 mi
9:00 PM86 °FPassing clouds.9 mph19%30.01 "HgN/A
8:30 PM86 °FPassing clouds.7 mph20%30.01 "HgN/A
8:00 PM86 °FPassing clouds.7 mph20%30.01 "HgN/A
7:30 PM88 °FPassing clouds.7 mph18%29.98 "HgN/A
7:00 PM88 °FPassing clouds.7 mph18%29.98 "HgN/A
6:30 PM88 °FPassing clouds.7 mph18%30.01 "HgN/A
6:00 PM88 °FPassing clouds.9 mph18%30.01 "HgN/A
5:30 PM90 °FPassing clouds.7 mph18%30.01 "HgN/A
5:00 PM90 °FPassing clouds.9 mph22%30.01 "HgN/A
4:30 PM88 °FPassing clouds.No wind21%30.01 "HgN/A
4:00 PM88 °FPassing clouds.7 mph21%30.01 "HgN/A
3:30 PM88 °FPassing clouds.9 mph19%30.04 "HgN/A
3:00 PM88 °FPassing clouds.5 mph21%30.04 "HgN/A
2:30 PM86 °FPassing clouds.7 mph20%30.07 "HgN/A
2:00 PM86 °FPassing clouds.5 mph24%30.07 "HgN/A
1:30 PM84 °FPassing clouds.9 mph25%30.07 "HgN/A
1:00 PM84 °FPassing clouds.2 mph27%30.09 "HgN/A
12:30 PM82 °FPassing clouds.9 mph28%30.09 "HgN/A
12:00 PM81 °FPassing clouds.7 mph30%30.12 "HgN/A
11:30 AM81 °FPassing clouds.7 mph30%30.12 "HgN/A
11:00 AM79 °FPassing clouds.7 mph34%30.12 "HgN/A
10:30 AM79 °FPassing clouds.7 mph34%30.12 "HgN/A
10:00 AM77 °FSunny.9 mph34%30.12 "Hg10 mi
9:30 AM77 °FSunny.9 mph34%30.12 "Hg10 mi
9:00 AM77 °FSunny.7 mph34%30.12 "Hg10 mi
8:30 AM77 °FClear.7 mph34%30.09 "Hg5 mi
8:00 AM75 °FClear.No wind36%30.12 "Hg5 mi
7:30 AM73 °FClear.7 mph38%30.09 "Hg5 mi
7:00 AM73 °FClear.5 mph36%30.09 "Hg10 mi
6:30 AM73 °FPassing clouds.No wind33%30.07 "HgN/A
6:00 AM73 °FPassing clouds.No wind36%30.07 "HgN/A
Weather by CustomWeather, © 2015

See weather overviewHow to use our weather pages